User: anonymous   Login
Location: The Saddle
(36.8333°N, 80.3417°W)
Time: 01:10:44
(UTC-04:00)
Language:

SL-16 DEB - Orbit

View from above orbital plane
View from above orbital plane
View from above satellite
View from above satellite

Ground track
Ground track

The orbit data is extracted from the following two-line orbital elements,

1 42239U 93016CT  24106.41887521  .00010978  00000-0  45664-2 0  9990
2 42239  71.1395 133.6294 0112327  55.8148 305.3566 14.23137690820614
Epoch (UTC): 15 April 2024 10:03:10
Eccentricity: 0.0112327
inclination: 71.1395°
perigee height: 734 km
apogee height: 895 km
right ascension of ascending node: 133.6294°
argument of perigee: 55.8148°
revolutions per day: 14.23137690
mean anomaly at epoch: 305.3566°
orbit number at epoch: 82061

The dashed part of the orbit path shows where the satellite is in the earth's shadow,  

DLR